Terminal Aerodrome Forecast
Issued by NWS Nashville, TN

Home | Current Version | Previous Version | Text Only | Print | Product List | Glossary On
Versions: 1 2 3 4 5 6 7 8 9 10 11 12 13 14 15 16 17 18 19 20
000
FTUS44 KOHX 192300
TAFBNA
TAF
KBNA 192331Z 2000/2024 02007KT P6SM BKN100
     FM200400 02003KT 6SM -RA OVC035
     FM201200 36004KT P6SM SCT040=

USA.gov is the U.S. government's official web portal to all federal, state and local government web resources and services.